{"data":{"norad_id":64210,"intl_designator":"2025-117H","name":"STARLINK-34310","alt_names":[],"object_type":"PAYLOAD","status":"ACTIVE","operator":null,"country":"US","launch_date":"2025-05-31","launch_site_code":"AFWTR","launch_vehicle":null,"mission":null,"orbit_class":"UNKNOWN","rcs_meters":null,"size_class":null,"mass_kg":null,"dimensions":null,"purposes":["comms"],"wikipedia_slug":null,"has_3d_model":false,"image_url":null,"decayed_at":null,"tle_current":{"epoch":"2026-09-20T03:21:35.491104Z","epoch_age_seconds":171530,"freshness":"FRESH","line1":"1 64210U 25117H   26263.13999411  .00024008  00000+0  71924-3 0  9994","line2":"2 64210  53.1582 215.2170 0001397  90.2070 269.9093 15.34407570 74314","mean_motion":15.3440757,"eccentricity":0.0001397,"inclination_deg":53.1582,"raan_deg":215.217,"arg_perigee_deg":90.207,"mean_anomaly_deg":269.9093,"bstar":0.00071924,"rev_number":7431,"period_min":93.847295083405,"perigee_km":461.72507842593,"apogee_km":463.63640290267,"semimajor_km":6840.8177406643,"source":"CELESTRAK","updated_at":"2026-09-21T09:00:35.271381Z"}}}